WW1TA Weather Reports


Display with metric or nautical units.
time (UTC)temp
F
wind
direction
speed
MPH
gust
MPH
rain 1hr
in
rain 24hr
in
rain mn
in
humidity
%
barometer
mb
20260507022627 73 5 0.0 4.0 0.00 0.00 0.00 86 1015.5
20260507022122 73 228 1.0 3.0 0.00 0.00 0.00 86 1015.5
20260507021619 73 58 0.0 3.0 0.00 0.00 0.00 86 1015.7
20260507021115 73 235 0.0 2.0 0.00 0.00 0.00 86 1015.9
20260507020613 73 185 1.0 3.0 0.00 0.00 0.00 86 1016.0
20260507020109 73 225 0.0 2.0 0.00 0.00 0.00 86 1016.3
20260507015608 73 175 1.0 3.0 0.00 0.00 0.00 86 1016.0
20260507015105 73 77 0.0 2.0 0.00 0.00 0.00 86 1016.2
20260507014602 73 339 0.0 3.0 0.00 0.00 0.00 86 1016.1
20260507014057 73 335 1.0 3.0 0.00 0.00 0.00 86 1016.3
20260507013554 73 217 0.0 2.0 0.00 0.00 0.00 86 1016.4
20260507013051 72 293 0.0 2.0 0.00 0.00 0.00 87 1015.9
20260507012548 73 29 0.0 2.0 0.00 0.00 0.00 86 1016.3
20260507012044 73 5 1.0 2.0 0.00 0.00 0.00 86 1016.1
20260507011542 73 50 2.0 2.0 0.00 0.00 0.00 86 1016.3
20260507011032 73 269 0.0 2.0 0.00 0.00 0.00 86 1016.6
20260507010532 73 294 1.0 3.0 0.00 0.00 0.00 86 1016.3
20260507010024 73 121 0.0 5.0 0.00 0.00 0.00 86 1016.5
20260507005521 73 162 0.0 3.0 0.00 0.00 0.00 86 1016.3
20260507005017 73 205 0.0 2.0 0.00 0.00 0.00 85 1016.2
20260507004515 73 192 0.0 2.0 0.00 0.00 0.00 85 1016.1
20260507004012 73 178 1.0 4.0 0.00 0.00 0.00 85 1016.4
20260507003507 73 222 0.0 2.0 0.00 0.00 0.00 85 1016.0
20260507003002 73 291 1.0 3.0 0.00 0.00 0.00 85 1016.3
20260507002459 73 18 1.0 1.0 0.00 0.00 0.00 84 1016.2
20260507001955 73 113 0.0 3.0 0.00 0.00 0.00 83 1016.1
20260507001451 73 44 0.0 4.0 0.00 0.00 0.00 82 1016.0
20260507000944 74 326 0.0 3.0 0.00 0.00 0.00 81 1016.4
20260507000442 74 78 2.0 3.0 0.00 0.00 0.00 81 1016.3
20260506235935 74 136 0.0 3.0 0.00 0.00 0.00 80 1016.3
20260506235432 74 91 0.0 2.0 0.00 0.00 0.00 79 1016.5
20260506234927 74 289 1.0 2.0 0.00 0.00 0.00 77 1016.3
20260506234425 75 72 2.0 2.0 0.00 0.00 0.00 76 1016.3
20260506233923 75 1 2.0 2.0 0.00 0.00 0.00 75 1016.1
20260506233419 75 345 0.0 3.0 0.00 0.00 0.00 74 1016.0
20260506232916 75 195 0.0 2.0 0.00 0.00 0.00 73 1016.0
20260506232412 75 212 0.0 3.0 0.00 0.00 0.00 72 1016.2
20260506231908 75 284 1.0 7.0 0.00 0.00 0.00 71 1016.3
20260506231406 76 309 0.0 5.0 0.00 0.00 0.00 71 1016.5
20260506230903 76 225 0.0 2.0 0.00 0.00 0.00 70 1016.4
20260506230359 76 338 2.0 5.0 0.00 0.00 0.00 70 1016.6
20260506225855 76 309 1.0 3.0 0.00 0.00 0.00 70 1016.4
20260506225353 77 330 3.0 11.0 0.00 0.00 0.00 68 1016.5
20260506224850 77 315 2.0 3.0 0.00 0.00 0.00 69 1016.3
20260506224347 78 252 3.0 3.0 0.00 0.00 0.00 68 1016.6
20260506223843 78 309 1.0 4.0 0.00 0.00 0.00 69 1016.4
20260506223339 78 339 2.0 3.0 0.00 0.00 0.00 69 1016.1
20260506222837 79 337 2.0 3.0 0.00 0.00 0.00 67 1016.1
20260506222332 79 268 1.0 4.0 0.00 0.00 0.00 67 1016.0
20260506221830 79 288 2.0 4.0 0.00 0.00 0.00 66 1016.1
20260506221327 80 247 3.0 4.0 0.00 0.00 0.00 64 1016.1
20260506220825 80 101 3.0 3.0 0.00 0.00 0.00 64 1016.1
20260506220320 81 223 1.0 3.0 0.00 0.00 0.00 62 1015.9
20260506215817 81 188 0.0 3.0 0.00 0.00 0.00 62 1016.0
20260506215313 82 219 1.0 3.0 0.00 0.00 0.00 61 1016.1
20260506214809 82 58 1.0 3.0 0.00 0.00 0.00 62 1016.2
20260506214306 81 356 0.0 4.0 0.00 0.00 0.00 63 1016.2
20260506213804 83 170 2.0 2.0 0.00 0.00 0.00 60 1016.2
20260506213301 83 249 3.0 3.0 0.00 0.00 0.00 61 1016.3
20260506212758 84 253 0.0 4.0 0.00 0.00 0.00 61 1016.2
20260506212254 83 304 2.0 4.0 0.00 0.00 0.00 60 1016.2
20260506211749 83 38 1.0 3.0 0.00 0.00 0.00 60 1016.5
20260506211246 84 267 1.0 3.0 0.00 0.00 0.00 59 1016.4
20260506210743 83 215 1.0 5.0 0.00 0.00 0.00 57 1016.3
20260506210239 84 317 0.0 4.0 0.00 0.00 0.00 59 1016.4
20260506205737 83 243 4.0 7.0 0.00 0.00 0.00 58 1016.4
20260506205232 82 252 1.0 9.0 0.00 0.00 0.00 60 1016.4
20260506204729 83 269 2.0 4.0 0.00 0.00 0.00 58 1016.3
20260506204227 84 341 5.0 5.0 0.00 0.00 0.00 57 1016.4
20260506203724 84 222 1.0 3.0 0.00 0.00 0.00 56 1016.5
20260506203216 84 308 1.0 3.0 0.00 0.00 0.00 55 1016.5
20260506202713 85 314 1.0 5.0 0.00 0.00 0.00 55 1016.5
20260506202208 85 271 1.0 3.0 0.00 0.00 0.00 57 1016.6
20260506201701 83 252 0.0 4.0 0.00 0.00 0.00 59 1016.7
20260506201157 83 2 4.0 5.0 0.00 0.00 0.00 58 1016.7
20260506200654 83 261 3.0 5.0 0.00 0.00 0.00 59 1016.7
20260506200150 84 252 2.0 5.0 0.00 0.00 0.00 60 1016.9
20260506195647 85 323 3.0 4.0 0.00 0.00 0.00 58 1016.9
20260506195143 84 11 1.0 3.0 0.00 0.00 0.00 60 1016.9
20260506194641 85 358 1.0 4.0 0.00 0.00 0.00 59 1016.8
20260506194137 85 249 2.0 5.0 0.00 0.00 0.00 60 1016.9
20260506193635 84 263 2.0 4.0 0.00 0.00 0.00 57 1017.0
20260506193132 86 208 5.0 6.0 0.00 0.00 0.00 55 1016.5
20260506192629 84 105 0.0 3.0 0.00 0.00 0.00 57 1017.0
20260506192125 84 265 3.0 5.0 0.00 0.00 0.00 58 1017.1
20260506191622 85 347 2.0 4.0 0.00 0.00 0.00 57 1017.1
20260506191117 85 235 3.0 4.0 0.00 0.00 0.00 58 1017.2
20260506190615 85 102 0.0 4.0 0.00 0.00 0.00 58 1017.5
20260506190112 85 237 4.0 6.0 0.00 0.00 0.00 56 1017.4
20260506185609 86 271 2.0 4.0 0.00 0.00 0.00 57 1017.9
20260506185105 86 260 3.0 4.0 0.00 0.00 0.00 57 1017.7
20260506184602 86 242 3.0 3.0 0.00 0.00 0.00 57 1017.7
20260506184059 85 1 4.0 7.0 0.00 0.00 0.00 57 1017.8
20260506183550 85 285 1.0 5.0 0.00 0.00 0.00 56 1018.0
20260506183046 86 260 0.0 6.0 0.00 0.00 0.00 57 1018.1
20260506182543 85 343 0.0 4.0 0.00 0.00 0.00 57 1018.1
20260506182040 85 260 0.0 3.0 0.00 0.00 0.00 59 1018.2
20260506181538 85 258 1.0 6.0 0.00 0.00 0.00 60 1018.0
20260506181030 85 258 2.0 4.0 0.00 0.00 0.00 58 1018.1
20260506180526 84 163 1.0 3.0 0.00 0.00 0.00 60 1018.3
20260506180023 86 252 4.0 5.0 0.00 0.00 0.00 58 1018.2
20260506175520 86 240 0.0 5.0 0.00 0.00 0.00 58 1018.4
20260506175016 84 149 2.0 3.0 0.00 0.00 0.00 59 1018.3
20260506174514 85 142 0.0 2.0 0.00 0.00 0.00 59 1018.5
20260506174010 84 296 3.0 3.0 0.00 0.00 0.00 59 1018.6
20260506173508 84 340 2.0 3.0 0.00 0.00 0.00 59 1018.7
20260506173005 84 9 0.0 3.0 0.00 0.00 0.00 59 1018.6
20260506172502 84 258 2.0 3.0 0.00 0.00 0.00 58 1018.4
20260506171957 84 348 2.0 6.0 0.00 0.00 0.00 57 1018.5
20260506171456 85 241 3.0 5.0 0.00 0.00 0.00 56 1018.8
20260506170953 85 208 2.0 3.0 0.00 0.00 0.00 56 1018.9
20260506170449 85 122 3.0 5.0 0.00 0.00 0.00 57 1018.7
20260506165942 85 298 1.0 3.0 0.00 0.00 0.00 56 1018.8
20260506165441 85 284 3.0 4.0 0.00 0.00 0.00 58 1018.7
20260506164936 85 333 2.0 6.0 0.00 0.00 0.00 56 1018.6
20260506164433 85 265 1.0 4.0 0.00 0.00 0.00 57 1018.9
20260506163931 86 50 0.0 3.0 0.00 0.00 0.00 54 1018.7
20260506163425 85 248 1.0 3.0 0.00 0.00 0.00 54 1018.8
20260506162920 84 281 2.0 5.0 0.00 0.00 0.00 55 1018.7
20260506162418 83 29 2.0 3.0 0.00 0.00 0.00 56 1018.8
20260506161916 82 238 2.0 2.0 0.00 0.00 0.00 57 1018.8
20260506161414 82 273 1.0 5.0 0.00 0.00 0.00 57 1019.0
20260506160905 82 18 5.0 5.0 0.00 0.00 0.00 56 1019.0
20260506160402 81 267 0.0 5.0 0.00 0.00 0.00 56 1019.1
20260506155901 82 288 0.0 6.0 0.00 0.00 0.00 54 1019.2
20260506155357 82 250 3.0 5.0 0.00 0.00 0.00 53 1019.0
20260506153520 83 2 1.0 4.0 0.00 0.00 0.00 52 1019.0
20260506153017 83 292 2.0 5.0 0.00 0.00 0.00 51 1019.1
20260506152514 83 343 3.0 7.0 0.00 0.00 0.00 49 1019.1
20260506152012 84 347 3.0 7.0 0.00 0.00 0.00 50 1019.3
20260506151509 82 264 3.0 4.0 0.00 0.00 0.00 52 1019.3
20260506151007 81 297 1.0 10.0 0.00 0.00 0.00 52 1019.0
20260506150503 82 14 2.0 8.0 0.00 0.00 0.00 52 1019.2
20260506150000 82 327 3.0 6.0 0.00 0.00 0.00 53 1019.1
20260506145456 82 340 7.0 8.0 0.00 0.00 0.00 53 1019.2
20260506144954 82 311 2.0 3.0 0.00 0.00 0.00 53 1019.2
20260506144450 81 177 1.0 5.0 0.00 0.00 0.00 55 1019.0
20260506143948 81 245 4.0 4.0 0.00 0.00 0.00 55 1018.9
20260506143445 80 237 0.0 3.0 0.00 0.00 0.00 58 1018.9
20260506142944 80 251 2.0 7.0 0.00 0.00 0.00 58 1018.9
20260506142442 80 272 0.0 3.0 0.00 0.00 0.00 60 1019.0
20260506141939 80 267 2.0 4.0 0.00 0.00 0.00 61 1019.0
20260506141437 79 253 3.0 4.0 0.00 0.00 0.00 63 1019.0
20260506140935 79 301 1.0 3.0 0.00 0.00 0.00 61 1019.1
20260506140431 79 293 2.0 7.0 0.00 0.00 0.00 61 1019.0
20260506135928 79 333 4.0 4.0 0.00 0.00 0.00 61 1018.8
20260506135426 79 353 3.0 5.0 0.00 0.00 0.00 63 1018.6
20260506134922 77 318 3.0 6.0 0.00 0.00 0.00 65 1018.5
20260506134418 77 302 3.0 7.0 0.00 0.00 0.00 65 1018.9
20260506133917 76 283 0.0 5.0 0.00 0.00 0.00 67 1018.8
20260506133412 76 296 1.0 5.0 0.00 0.00 0.00 66 1018.9
20260506132908 76 346 4.0 4.0 0.00 0.00 0.00 68 1018.6
20260506132406 75 34 1.0 3.0 0.00 0.00 0.00 70 1018.8
20260506131904 74 70 0.0 5.0 0.00 0.00 0.00 71 1018.6
20260506131359 74 338 4.0 5.0 0.00 0.00 0.00 72 1018.7
20260506130857 73 318 2.0 5.0 0.00 0.00 0.00 74 1018.7
20260506130353 73 58 1.0 3.0 0.00 0.00 0.00 75 1018.7
20260506125851 73 265 1.0 5.0 0.00 0.00 0.00 76 1018.7
20260506125349 72 324 0.0 4.0 0.00 0.00 0.00 77 1018.8
20260506124847 71 281 0.0 2.0 0.00 0.00 0.00 79 1018.6
20260506124344 71 353 3.0 4.0 0.00 0.00 0.00 80 1018.5
20260506123841 71 317 0.0 3.0 0.00 0.00 0.00 81 1018.4
20260506123340 70 302 1.0 2.0 0.00 0.00 0.00 82 1018.4
20260506122837 69 303 2.0 3.0 0.00 0.00 0.00 84 1018.6
20260506122333 69 35 3.0 4.0 0.00 0.00 0.00 86 1018.7
20260506121832 67 279 0.0 4.0 0.00 0.00 0.00 91 1018.5
20260506121328 66 172 0.0 2.0 0.00 0.00 0.00 94 1018.2
20260506120826 66 358 4.0 4.0 0.00 0.00 0.00 97 1018.4
20260506120323 65 6 1.0 2.0 0.00 0.00 0.00 98 1018.4
20260506115820 65 320 0.0 1.0 0.00 0.00 0.00 98 1018.1
20260506115319 64 269 0.0 1.0 0.00 0.00 0.00 98 1018.3
20260506114816 63 60 0.0 0.0 0.00 0.00 0.00 98 1018.4
20260506114314 63 58 1.0 1.0 0.00 0.00 0.00 98 1018.1
20260506113812 62 103 0.0 0.0 0.00 0.00 0.00 98 1018.3
20260506113309 62 89 0.0 0.0 0.00 0.00 0.00 98 1018.3
20260506112806 61 94 0.0 0.0 0.00 0.00 0.00 98 1018.0
20260506112305 61 50 0.0 0.0 0.00 0.00 0.00 98 1017.9
20260506111801 61 130 0.0 0.0 0.00 0.00 0.00 98 1018.1
20260506111259 60 40 0.0 1.0 0.00 0.00 0.00 98 1018.0
20260506110756 60 77 0.0 1.0 0.00 0.00 0.00 98 1018.1
20260506110253 60 186 0.0 0.0 0.00 0.00 0.00 98 1018.1
20260506105749 60 145 0.0 1.0 0.00 0.00 0.00 98 1018.1
20260506105246 60 89 0.0 2.0 0.00 0.00 0.00 98 1018.0
20260506104744 60 129 0.0 0.0 0.00 0.00 0.00 98 1017.9
20260506104241 60 124 0.0 1.0 0.00 0.00 0.00 97 1018.1
20260506103738 60 128 0.0 1.0 0.00 0.00 0.00 98 1017.9
20260506103236 60 199 0.0 1.0 0.00 0.00 0.00 97 1017.9
20260506102733 60 81 0.0 1.0 0.00 0.00 0.00 97 1018.0
20260506102231 60 53 0.0 0.0 0.00 0.00 0.00 97 1017.8
20260506101728 60 129 0.0 0.0 0.00 0.00 0.00 97 1017.7
20260506101224 60 142 0.0 0.0 0.00 0.00 0.00 97 1017.7
20260506100722 60 310 0.0 1.0 0.00 0.00 0.00 97 1017.6
20260506100221 60 38 0.0 0.0 0.00 0.00 0.00 97 1017.7
20260506095718 61 172 0.0 1.0 0.00 0.00 0.00 97 1017.7
20260506095215 61 108 1.0 2.0 0.00 0.00 0.00 97 1017.7
20260506094712 61 131 0.0 0.0 0.00 0.00 0.00 96 1017.7
20260506094210 61 40 0.0 1.0 0.00 0.00 0.00 97 1017.6
20260506093709 61 89 0.0 0.0 0.00 0.00 0.00 96 1017.7
20260506093205 61 269 0.0 0.0 0.00 0.00 0.00 96 1017.8
20260506092703 61 129 0.0 0.0 0.00 0.00 0.00 96 1017.7
20260506092200 61 57 0.0 1.0 0.00 0.00 0.00 96 1017.8
20260506091658 61 142 0.0 0.0 0.00 0.00 0.00 95 1017.8
20260506091155 61 142 0.0 0.0 0.00 0.00 0.00 95 1017.8
20260506090653 61 142 0.0 0.0 0.00 0.00 0.00 95 1017.8
20260506090149 61 50 0.0 0.0 0.00 0.00 0.00 95 1017.8
20260506085646 62 50 0.0 0.0 0.00 0.00 0.00 94 1017.8
20260506085142 62 50 0.0 0.0 0.00 0.00 0.00 94 1017.9
20260506084639 63 37 0.0 1.0 0.00 0.00 0.00 95 1017.8
20260506084136 62 40 0.0 1.0 0.00 0.00 0.00 94 1018.0
20260506083633 62 89 0.0 1.0 0.00 0.00 0.00 94 1018.0
20260506083131 62 50 0.0 0.0 0.00 0.00 0.00 94 1017.9
20260506082627 62 50 0.0 0.0 0.00 0.00 0.00 94 1018.0
20260506082122 62 130 0.0 0.0 0.00 0.00 0.00 93 1018.0
20260506081621 62 130 0.0 0.0 0.00 0.00 0.00 93 1017.8
20260506081118 63 37 0.0 1.0 0.00 0.00 0.00 93 1017.8
20260506080616 63 103 0.0 0.0 0.00 0.00 0.00 93 1017.9
20260506080112 63 44 0.0 2.0 0.00 0.00 0.00 93 1017.7
20260506073056 64 22 0.0 1.0 0.00 0.00 0.00 91 1017.6
20260506072553 64 49 0.0 0.0 0.00 0.00 0.00 90 1017.5
20260506072051 64 37 0.0 1.0 0.00 0.00 0.00 90 1017.5
20260506071548 65 32 0.0 0.0 0.00 0.00 0.00 89 1017.6
20260506071046 64 6 0.0 0.0 0.00 0.00 0.00 90 1017.7
20260506070543 64 13 1.0 2.0 0.00 0.00 0.00 90 1017.7
20260506062017 61 55 0.0 1.0 0.00 0.00 0.00 94 1018.1
20260506061513 61 37 0.0 0.0 0.00 0.00 0.00 94 1017.8
20260506061011 61 103 0.0 1.0 0.00 0.00 0.00 94 1017.9
20260506060509 61 124 0.0 0.0 0.00 0.00 0.00 94 1017.8
20260506050938 61 77 0.0 0.0 0.00 0.00 0.00 91 1018.7
20260506050435 61 77 0.0 0.0 0.00 0.00 0.00 90 1018.7
20260506044925 61 129 0.0 0.0 0.00 0.00 0.00 89 1018.8
20260506044424 62 129 0.0 0.0 0.00 0.00 0.00 89 1019.0
20260506043920 61 62 0.0 1.0 0.00 0.00 0.00 89 1019.1
20260506043418 61 32 0.0 1.0 0.00 0.00 0.00 89 1018.6
20260506042915 61 129 0.0 0.0 0.00 0.00 0.00 88 1018.9
20260506042415 61 89 0.0 0.0 0.00 0.00 0.00 87 1018.9
20260506041913 61 50 0.0 0.0 0.00 0.00 0.00 86 1018.7
20260506041410 62 103 0.0 0.0 0.00 0.00 0.00 86 1018.8
20260506040907 62 103 0.0 0.0 0.00 0.00 0.00 86 1018.8
20260506040404 62 102 0.0 0.0 0.00 0.00 0.00 86 1018.8
20260506035900 62 102 0.0 1.0 0.00 0.00 0.00 85 1019.1
20260506035358 62 50 0.0 0.0 0.00 0.00 0.00 84 1018.9
20260506034854 62 50 0.0 1.0 0.00 0.00 0.00 84 1019.0
20260506034352 62 84 1.0 2.0 0.00 0.00 0.00 85 1018.6
20260506033849 62 147 0.0 1.0 0.00 0.00 0.00 86 1018.6
20260506033346 62 69 0.0 0.0 0.00 0.00 0.00 86 1018.8
20260506032843 62 102 0.0 2.0 0.00 0.00 0.00 86 1018.7
20260506032339 62 57 0.0 1.0 0.00 0.00 0.00 87 1018.6
20260506031836 61 44 0.0 0.0 0.00 0.00 0.00 88 1018.6
20260506031334 62 55 0.0 1.0 0.00 0.00 0.00 87 1018.7
20260506030831 62 106 0.0 1.0 0.00 0.00 0.00 87 1018.7
20260506030329 62 142 0.0 1.0 0.00 0.00 0.00 86 1018.7
20260506025826 62 157 0.0 1.0 0.00 0.00 0.00 86 1018.8
20260506025322 62 189 0.0 1.0 0.00 0.00 0.00 85 1018.9
20260506024819 61 129 0.0 0.0 0.00 0.00 0.00 85 1019.1
20260506024316 62 129 0.0 0.0 0.00 0.00 0.00 85 1019.1
20260506023812 62 76 0.0 0.0 0.00 0.00 0.00 85 1019.3
20260506023309 62 82 0.0 1.0 0.00 0.00 0.00 85 1019.3